Location: Klickitat County Star Party
(45.8642°N, 120.6771°W)
Time: 16:34:58
(UTC-07:00)

SO-50 - Pass Details

Date: 02 June 2019
Orbit: 586 x 700 km, 64.6° (Epoch: 18 June)

Event Time Altitude Azimuth Distance (km) Brightness Sun altitude
Rises 22:55:16 0° 328° (NNW) 3,091 ? -16.1°
Reaches altitude 10° 22:58:15 10° 346° (NNW) 2,164 ? -16.4°
Maximum altitude 23:01:50 20° 33° (NNE) 1,596 ? -16.7°
Drops below altitude 10° 23:05:22 10° 79° (E) 2,127 ? -17.0°
Enters shadow 23:06:39 - 89° (E) 2,499 ? -17.1°
